sat.trackr.live / text

‹ back to catalog

STARLINK-34260

NORAD 64334 · 2025-124T

PAYLOAD ACTIVE UNKNOWN

§ Identity

Operator
Country
US
Launch date
2025-06-10
Launch site
AFETR
Launch vehicle
Mass (kg)
RCS (m²)

Purposes: comms

External: N2YO · Heavens-Above · Gunter

§ Orbital elements

Epoch: 2026-09-20T16:00:01.999584Z

Period
94.27 min
Inclination
42.9995°
Eccentricity
0.0001254
Mean motion
15.27590788 rev/d
Perigee alt
482.2 km
Apogee alt
483.9 km
Semi-major
6,861.2 km
B*
-6.1256e-4
RAAN
100.8097°
Arg perigee
266.0233°
Mean anomaly
214.5314°
Rev number
588

§ Raw data

STARLINK-342601 64334U 25124T   26263.66668981 -.00017085  00000+0 -61256-3 0  99982 64334  42.9995 100.8097 0001254 266.0233 214.5314 15.27590788  5882

JSON: /api/v1/satellites/64334 · /tle

For live sub-satellite position, see the globe view (requires WebGL).

§ Visibility from observer

Set your observer location to see the next 7 days of passes ≥ 10°. The values pass through the URL so the page stays shareable.

No JS? Fill the form by hand. The geolocation button needs JavaScript.